Rocky Mount, NC

4:21 AM EST on February 18, 2018 (GMT -0500)
Rocky Mount-Wilson Regional

Weather History for KRWI - December, 2013

Change the Weather History Date:

Saturday, December 7, 2013

  Actual Average Record
Temperature  
Mean Temperature 56 °F -  
Max Temperature 69 °F 59 °F 78 °F (1998)
Min Temperature 42 °F 33 °F 15 °F (1954)
Degree Days  
Heating Degree Days 9    
Growing Degree Days 6 (Base 50)    
Moisture  
Dew Point 43 °F    
Average Humidity 81    
Maximum Humidity 93    
Minimum Humidity 62    
Precipitation  
Precipitation 0.27 in - - ()
Sea Level Pressure  
Sea Level Pressure 30.28 in    
Wind  
Wind Speed 13 mph (NNE)    
Max Wind Speed 18 mph    
Max Gust Speed 28 mph    
Visibility 9 miles    
Events Rain , Thunderstorm    
Averages and records for this station are not official NWS values.
T = Trace of Precipitation, MM = Missing Value Source: NWS Daily Summary

Daily Weather History Graph

Daily Weather History Graph

Search for Another Location

Airport or City:

Trip Planner

Search our weather history database for the weather conditions in past years. The results will help you decide how hot, cold, wet, or windy it might be!

Date:

Astronomy

Dec. 07, 2013 Rise Set
Actual Time 7:08 AM EST 4:57 PM EST
Civil Twilight 6:40 AM EST 5:25 PM EST
Nautical Twilight 6:08 AM EST 5:57 PM EST
Astronomical Twilight 5:37 AM EST 6:28 PM EST
Moon 10:59 AM EST (12/7) 10:29 PM EST (12/7)
Length of Visible Light 10h 45m
Length of Day
9h 48m
Waxing Crescent, 29% of the Moon is Illuminated
Dec 7
Waxing Crescent
Dec 9
First Quarter
Dec 17
Full
Dec 25
Last Quarter
Jan 1
New

Hourly Weather History & Observations

Time (EST) Temp. Windchill Dew Point Humidity Pressure Visibility Wind Dir Wind Speed Gust Speed Precip Events Conditions
12:53 AM 68.0 °F - 64.0 °F 87% 30.02 in 10.0 mi South 11.5 mph - N/A   Clear
1:53 AM 68.0 °F - 64.0 °F 87% 30.01 in 10.0 mi South 10.4 mph - N/A   Clear
2:53 AM 69.1 °F - 64.0 °F 84% 30.03 in 10.0 mi SW 10.4 mph - N/A   Overcast
3:53 AM 69.1 °F - 64.0 °F 84% 30.03 in 10.0 mi SSW 9.2 mph - N/A   Overcast
4:21 AM 61.0 °F - 55.9 °F 83% 30.05 in 10.0 mi NNE 12.7 mph 18.4 mph N/A   Overcast
4:30 AM 57.9 °F - 53.1 °F 84% 30.06 in 10.0 mi NNE 12.7 mph - N/A   Overcast
4:53 AM 54.0 °F - 51.1 °F 90% 30.08 in 5.0 mi North 12.7 mph - 0.02 in Rain Light Rain
5:02 AM 53.1 °F - 51.1 °F 93% 30.09 in 2.5 mi North 12.7 mph - 0.06 in Rain Heavy Rain
5:12 AM 52.0 °F - 50.0 °F 93% 30.10 in 5.0 mi North 16.1 mph 23.0 mph 0.07 in Rain Light Rain
5:31 AM 50.0 °F - 48.0 °F 93% 30.12 in 5.0 mi North 18.4 mph - 0.11 in Rain , Thunderstorm Light Rain
5:46 AM 50.0 °F - 48.0 °F 93% 30.15 in 5.0 mi North 18.4 mph 23.0 mph 0.17 in Rain Rain
5:53 AM 50.0 °F - 46.9 °F 89% 30.16 in 6.0 mi North 15.0 mph - 0.19 in Rain Rain
6:20 AM 48.0 °F - 45.0 °F 89% 30.17 in 10.0 mi North 16.1 mph - 0.01 in   Overcast
6:53 AM 46.0 °F 38.8 °F 43.0 °F 89% 30.20 in 10.0 mi North 18.4 mph 27.6 mph 0.01 in   Overcast
7:53 AM 45.0 °F 38.5 °F 43.0 °F 93% 30.24 in 5.0 mi NNE 13.8 mph - 0.02 in Rain Light Rain
8:53 AM 44.1 °F 37.1 °F 41.0 °F 89% 30.28 in 10.0 mi North 15.0 mph - 0.02 in   Overcast
9:09 AM 44.1 °F 38.1 °F 41.0 °F 89% 30.30 in 10.0 mi North 11.5 mph - N/A   Overcast
9:53 AM 44.1 °F 38.6 °F 42.1 °F 93% 30.32 in 7.0 mi North 10.4 mph - 0.01 in   Overcast
10:05 AM 44.1 °F 37.7 °F 41.0 °F 89% 30.33 in 6.0 mi NNE 12.7 mph - 0.00 in Rain Light Rain
10:25 AM 44.1 °F 37.7 °F 41.0 °F 89% 30.34 in 9.0 mi North 12.7 mph - 0.00 in   Overcast
10:40 AM 44.1 °F 38.1 °F 41.0 °F 89% 30.34 in 10.0 mi North 11.5 mph - 0.00 in   Overcast
10:50 AM 44.6 °F 38.1 °F 41.0 °F 87% 30.34 in 10.0 mi North 13.8 mph - 0.00 in   Overcast
10:53 AM 44.1 °F 37.4 °F 41.0 °F 89% 30.34 in 10.0 mi North 13.8 mph - 0.00 in   Overcast
11:00 AM 44.1 °F 38.6 °F 41.0 °F 89% 30.34 in 10.0 mi North 10.4 mph 19.6 mph N/A   Overcast
11:17 AM 44.1 °F 37.7 °F 41.0 °F 89% 30.34 in 10.0 mi North 12.7 mph - N/A   Overcast
11:53 AM 45.0 °F 39.7 °F 39.9 °F 82% 30.33 in 10.0 mi North 10.4 mph - N/A   Overcast
12:21 PM 46.0 °F 41.4 °F 39.9 °F 79% 30.33 in 10.0 mi North 9.2 mph - N/A   Overcast
12:31 PM 45.0 °F 37.9 °F 39.0 °F 80% 30.33 in 10.0 mi North 16.1 mph 20.7 mph N/A   Overcast
12:53 PM 45.0 °F 38.2 °F 37.9 °F 76% 30.33 in 10.0 mi NNE 15.0 mph - N/A   Overcast
1:53 PM 46.0 °F 41.0 °F 37.9 °F 73% 30.32 in 10.0 mi North 10.4 mph - N/A   Overcast
2:53 PM 46.0 °F 39.9 °F 37.0 °F 71% 30.33 in 10.0 mi NNE 13.8 mph - N/A   Overcast
3:53 PM 46.0 °F 41.4 °F 37.0 °F 71% 30.35 in 10.0 mi NNE 9.2 mph - N/A   Overcast
4:11 PM 46.0 °F 40.6 °F 37.0 °F 71% 30.36 in 10.0 mi NNE 11.5 mph - N/A   Overcast
4:22 PM 46.0 °F 41.0 °F 37.0 °F 71% 30.36 in 10.0 mi NNE 10.4 mph - N/A   Overcast
4:53 PM 46.0 °F 41.4 °F 37.0 °F 71% 30.37 in 10.0 mi NNE 9.2 mph - N/A   Overcast
5:08 PM 46.0 °F 41.0 °F 37.0 °F 71% 30.37 in 10.0 mi NNE 10.4 mph - N/A   Overcast
5:53 PM 46.0 °F 40.6 °F 36.0 °F 68% 30.40 in 10.0 mi NNE 11.5 mph - N/A   Overcast
6:14 PM 46.0 °F 40.2 °F 36.0 °F 68% 30.41 in 10.0 mi North 12.7 mph - N/A   Overcast
6:53 PM 45.0 °F 39.7 °F 36.0 °F 71% 30.43 in 10.0 mi NE 10.4 mph - N/A   Overcast
7:53 PM 45.0 °F 39.7 °F 35.1 °F 68% 30.45 in 10.0 mi NE 10.4 mph - N/A   Overcast
8:53 PM 44.1 °F 36.8 °F 33.1 °F 65% 30.45 in 10.0 mi NNE 16.1 mph - N/A   Overcast
9:53 PM 44.1 °F 37.1 °F 32.0 °F 63% 30.47 in 10.0 mi North 15.0 mph 20.7 mph N/A   Overcast
10:53 PM 43.0 °F 36.4 °F 30.9 °F 62% 30.48 in 10.0 mi NNE 12.7 mph 19.6 mph N/A   Overcast
11:53 PM 42.1 °F 35.2 °F 30.9 °F 65% 30.47 in 10.0 mi NNE 12.7 mph - N/A   Overcast